TIANWANG 1B (TW-1B)
1 40927U 15051C   19170.51385608  .00006660  00000-0  10387-3 0  9998
2 40927  97.1392 216.0554 0008980  33.9419  75.7655 15.54135300210142
TIANWANG 1A (TW-1A)
1 40928U 15051D   19170.33149483  .00002251  00000-0  56865-4 0  9992
2 40928  97.1448 201.6218 0013069  73.2865 342.3602 15.40763960209279
LAPAN A2
1 40931U 15052B   19167.18766104  .00000614  00000-0 -34366-5 0  9996
2 40931   6.0047  74.3720 0012472 121.1773 239.0129 14.76607338200897
LQSAT
1 40958U 15057A   19169.83551229 +.00000017 +00000-0 +10350-4 0  9996
2 40958 097.8987 239.0286 0016947 238.4911 121.4642 14.73081587198834
CHUBUSAT 2
1 41338U 16012B   19170.15746702  .00000204  00000-0  91214-5 0  9997
2 41338  31.0020 141.8085 0013766 108.0240 252.1896 15.00151384182981
CHUBUSAT 3
1 41339U 16012C   19170.32648856  .00000223  00000-0  10605-4 0  9993
2 41339  31.0081 138.8273 0013565 117.2347 242.9672 15.00327334183004
OUFTI-1
1 41458U 16025C   19169.72165926 +.00000916 +00000-0 +50776-4 0  9995
2 41458 098.1017 256.5649 0166379 357.5081 002.5297 15.05806671172574
E-STAR-2
1 41459U 16025D   19170.46921847 -.00000188  00000-0 -47921-5 0  9993
2 41459  98.1020 257.0136 0167753 356.2774   3.7187 15.05446107172663
AAUSAT 4
1 41460U 16025E   19170.37756367  .00001199  00000-0  64094-4 0  9998
2 41460  98.0957 258.1578 0157925 349.1626  10.6194 15.07328292172775
NUSAT 1
1 41557U 16033B   19170.50276530  .00000747  00000-0  30776-4 0  9996
2 41557  97.4180 257.9975 0012269 298.3381  61.6620 15.27202749170212
BEESAT 4
1 41619U 16040W   19170.17200495  .00000827  00000-0  37941-4 0  9993
2 41619  97.3673 232.3869 0012090  30.1828 330.0103 15.23117560153937
PRATHAM
1 41783U 16059A   19170.48854760  .00000035  00000-0  15999-4 0  9999
2 41783  98.0673 230.0530 0034055  23.9042 336.3732 14.62995682145669
ALSAT 1N
1 41789U 16059G   19170.40819330  .00000040  00000-0  16652-4 0  9994
2 41789  98.0699 231.9703 0028802  14.2000 346.0000 14.64244622145754
NAYIF 1
1 42017U 17008BX  19170.15665944  .00000968  00000-0  41019-4 0  9990
2 42017  97.4031 237.2461 0006910 153.5899 206.5692 15.25517365129991
MAX VALIER SAT
1 42778U 17036P   19170.12032700  .00000586  00000-0  28668-4 0  9991
2 42778  97.3542 227.7778 0011326 216.0410 144.0064 15.22007469110307
